Current Version              Previous Version:    01  02  03  04  05  06  07  08  09  10  11  12  13  14  15  16  17  18  19  20  21  22  23  24  25  26  27  28  29  30  
   31  32  33  34  35  36  37  38  39  40  41  42  43  44  45  46  47  48  49  50  51  52  53  54  55  56  57  58  59  60  

[Printable]
600
ASUS44 KFWD 272002
RWRTX
NORTH TEXAS HOURLY WEATHER ROUNDUP
NATIONAL WEATHER SERVICE FORT WORTH TX
ISSUED BY NWS SHREVEPORT LA
200 PM CST THU NOV 27 2014

NOTE: "FAIR" INDICATES FEW OR NO CLOUDS BELOW 12,000 FEET WITH NO
SIGNIFICANT WEATHER AND/OR OBSTRUCTIONS TO VISIBILITY.

TXZ118-119-272100-
DALLAS/FORT WORTH METROPLEX

CITY           SKY/WX    TMP DP  RH WIND       PRES   REMARKS
DFW AIRPORT    SUNNY     55  19  24 CALM      30.44F
DALLAS LOVE    MOSUNNY   58  20  22 CALM      30.45F
FTW MEACHAM    SUNNY     57  21  24 CALM      30.44F
DAL-EXECUTIVE  SUNNY     59  18  20 E7        30.44F
FTW-ALLIANCE   SUNNY     55  23  28 NW3       30.44F
FTW-NAS-JRB    SUNNY     60  19  20 CALM      30.50F
FTW-SPINKS     SUNNY     57  21  24 CALM      30.46F
ARLINGTON      SUNNY     57  18  21 W3        30.45F
$$

TXZ091>094-102>105-117-120-121-131>134-272100-
NORTH CENTRAL TEXAS

CITY           SKY/WX    TMP DP  RH WIND       PRES   REMARKS
SHRMAN/DENISON SUNNY     55  26  32 CALM      30.46F
DENTON         SUNNY     55  20  25 CALM      30.45F
MCKINNEY       SUNNY     57  19  22 VRB3      30.44F
TERRELL        SUNNY     60  23  24 VRB5      30.45F
$$

TXZ083>090-098>101-113>116-127>130-139>142-154-155-272100-
WESTERN NORTH TEXAS

CITY           SKY/WX    TMP DP  RH WIND       PRES   REMARKS
WICHITA FALLS  SUNNY     52  24  33 S8        30.43F
ABILENE        SUNNY     58  29  33 SE15G21   30.41F
ABILENE-DYESS  SUNNY     59  30  32 S12       30.40F
MINERAL WELLS  SUNNY     56  23  27 SE7       30.43F
STEPHENVILLE   SUNNY     58  21  23 SE6       30.46F
$$

TXZ143>147-156>162-174-175-272100-
CENTRAL TEXAS

CITY           SKY/WX    TMP DP  RH WIND       PRES   REMARKS
WACO           SUNNY     58  24  27 VRB3      30.45F
WACO-MCGREGOR  SUNNY     61  27  27 E5        30.46F
CORSICANA      SUNNY     59  24  26 NE7       30.46F
TEMPLE         SUNNY     59  25  27 CALM      30.44F
KILLEEN-GRAY   SUNNY     58  20  22 NE6       30.44F
KILLEEN-SKYLRK SUNNY     57  21  24 E5        30.43F
FORT HOOD      SUNNY     64  22  20 NE5       30.43F
$$

TXZ095>097-106>112-122>126-135>138-148>153-164>167-272100-
EAST TEXAS

CITY           SKY/WX    TMP DP  RH WIND       PRES   REMARKS
PARIS          SUNNY     55  19  24 E3        30.46F
TYLER          SUNNY     61  19  19 NE6       30.43F
LONGVIEW       SUNNY     58  22  24 CALM      30.44F
JACKSONVILLE   SUNNY     61  21  22 NE6       30.45F
NACOGDOCHES    SUNNY     63  27  25 E3        30.44F
LUFKIN         SUNNY     65  25  22 VRB5      30.43F
$$

SUPPLEMENTAL OBSERVATIONS (CENTRAL)

CITY           SKY/WX    TMP DP  RH WIND       PRES   REMARKS
$$

SUPPLEMENTAL OBSERVATIONS (WEST)

CITY           SKY/WX    TMP DP  RH WIND       PRES   REMARKS
$$

SUPPLEMENTAL OBSERVATIONS (EAST)

CITY           SKY/WX    TMP DP  RH WIND       PRES   REMARKS
$$

SUPPLEMENTAL OBSERVATIONS ARE A COLLECTION OF AUTOMATED INSTRUMENTS
THAT ARE MAINTAINED BY A VARIETY OF FEDERAL AND STATE AGENCIES.
CERTAIN ELEMENTS...SUCH AS HUMIDITY VALUES AND SUSTAINED WIND
SPEEDS...MAY BE ESTIMATED.